Regional Weather Roundup
Issued by NWS

Home | Current Version | Previous Version | Graphics & Text | Print | Product List | Glossary On
Versions: 1 2 3 4 5 6 7 8 9 10 11 12 13 14 15 16 17 18 19 20 21 22 23 24 25 26 27 28 29 30 31 32 33 34 35 36 37 38 39 40 41 42 43 44 45 46 47 48 49 50
000
ASUS43 KLOT 012100
RWRIL

ILLINOIS REGIONAL WEATHER ROUNDUP
NATIONAL WEATHER SERVICE CHICAGO/ROMEOVILLE IL
400 PM CDT WED JUL 01 2015

NOTE: "FAIR" INDICATES FEW OR NO CLOUDS BELOW 12,000 FEET WITH NO
SIGNIFICANT WEATHER AND/OR OBSTRUCTIONS TO VISIBILITY.

* THESE STATIONS ARE NOT UNDER NWS QUALITY CONTROL. THEY ALSO MAY NOT
  REPORT WEATHER SUCH AS PRECIPITATION OR FOG.

ILZ001-002-007-009-015-016-024-012200-
NORTHWEST ILLINOIS

CITY           SKY/WX    TMP DP  RH WIND       PRES   REMARKS
MOLINE         CLOUDY    72  60  66 E8        29.93R
STERLING*      MOSUNNY   73  59  60 NE8       29.94R
$$

ILZ003-004-008-010-011-017-018-012200-
NORTH CENTRAL ILLINOIS

CITY           SKY/WX    TMP DP  RH WIND       PRES   REMARKS
ROCKFORD       CLOUDY    73  49  42 NE9       29.96S
$$

ILZ005-006-012>014-019>023-012200-
NORTHEAST ILLINOIS

CITY           SKY/WX    TMP DP  RH WIND       PRES   REMARKS
CHICAGO-OHARE  CLOUDY    63  51  65 NE10      29.96F
CHICAGO-MIDWAY PTSUNNY   65  52  62 E13       29.96F
AURORA         MOSUNNY   73  55  53 N5        29.94F
WAUKEGAN       PTSUNNY   59  51  75 NE13      29.97F
DUPAGE AIRPORT MOSUNNY   71  55  56 E7        29.93F
WHEELING       PTSUNNY   60  49  66 NE10      29.98S
NORTHERLY ISL    N/A     59  50  72 NE10        N/A
$$

LMZ740>746-012200-
SOUTHERN LAKE MICHIGAN

STATION/POSITION SKY/WX   TEMP    WIND        PRES    VSBY  WAVE
                          AIR SEA DIR/SP/G                  HT/PER
                          (F)     (DEG/KT/KT) (MB)    (MI)  (FT/S)
HARRISON CRIB              56      60/ 10/ 12   N/A
BURNHAM HARBOR             59      60/  9/ 11   N/A
CALUMET HARBOR             60      30/  8/ 12   N/A
BURNS HARBOR               60      40/ 13/ 15 1015.6S
MICHIGAN CITY              57     360/ 11/ 13   N/A
MICHIGAN CITY 6N           58 65   40/ 10/ 12   N/A           3/ 5
ST. JOSEPH                 58 63                N/A           3/ 5
$$

ILZ025>027-034>036-040-047-049-050-058-095>099-012200-
WEST-CENTRAL ILLINOIS

CITY           SKY/WX    TMP DP  RH WIND       PRES   REMARKS
QUINCY         PTSUNNY   82  68  62 VRB3      29.86F HX  85
$$

ILZ028>032-037-038-041>044-048-051>054-059>061-012200-
CENTRAL ILLINOIS

CITY           SKY/WX    TMP DP  RH WIND       PRES   REMARKS
DECATUR        CLOUDY    77  68  73 NE7       29.88F
PEORIA         PTSUNNY   77  64  64 NE8       29.91R
SPRINGFIELD    HVY RAIN  76  71  85 NE7       29.87F
TAYLORVILLE    NOT AVBL
$$

ILZ033-039-045-046-055>057-062-063-012200-
EAST-CENTRAL ILLINOIS

CITY           SKY/WX    TMP DP  RH WIND       PRES   REMARKS
CHAMPAIGN      MOSUNNY   76  66  71 E7        29.90F
MATTOON        PTSUNNY   79  70  74 NE10      29.87F HX  82
$$

ILZ079-100>102-012200-
SOUTHWEST ILLINOIS

CITY           SKY/WX    TMP DP  RH WIND       PRES   REMARKS
ALTON          MOSUNNY   81  75  83 W6        29.87F HX  86
BELLEVILLE     MOSUNNY   84  72  66 NW7       29.86S HX  89
CAHOKIA*       PTSUNNY   85  68  56 VRB7      29.86S HX  88
$$

ILZ064>066-069>071-074>076-080>082-084>086-088>090-092>094-012200-
SOUTH-CENTRAL ILLINOIS

CITY           SKY/WX    TMP DP  RH WIND       PRES   REMARKS
CARBONDALE     PTSUNNY   81  68  64 SW8       29.88R HX  84
MARION         PTSUNNY   82  70  65 W6        29.90R HX  86
MT. VERNON     MOSUNNY   82  66  57 W5        29.87F HX  85
$$

ILZ067-068-072-073-078-083-087-091-012200-
SOUTHEAST ILLINOIS

CITY           SKY/WX    TMP DP  RH WIND       PRES   REMARKS
LAWRENCEVILLE  LGT RAIN  79  70  74 W6        29.87F HX  82
$$

ABBREVIATIONS USED IN REMARKS
   TC - TEMPERATURE IN CELSIUS
  WCI - WIND CHILL INDEX
   HX - HEAT INDEX
  VSB - VISIBILITY
$$



USA.gov is the U.S. government's official web portal to all federal, state and local government web resources and services.